TimeMDT,TemperatureF,Dew PointF,Humidity,Sea Level PressureIn,VisibilityMPH,Wind Direction,Wind SpeedMPH,Gust SpeedMPH,PrecipitationIn,Events,Conditions,WindDirDegrees,DateUTC
12:55 AM,68.0,53.6,60,29.93,25.0,South,27.6,36.8,N/A,,Mostly Cloudy,180,2013-07-11 06:55:00
1:55 AM,68.0,53.6,60,29.95,25.0,South,24.2,35.7,N/A,,Mostly Cloudy,180,2013-07-11 07:55:00
2:55 AM,68.0,51.8,56,29.90,25.0,South,26.5,33.4,N/A,,Mostly Cloudy,190,2013-07-11 08:55:00
3:55 AM,66.2,51.8,60,29.90,25.0,South,19.6,-,N/A,,Mostly Cloudy,190,2013-07-11 09:55:00
4:55 AM,64.4,53.6,68,29.90,25.0,South,17.3,-,N/A,,Mostly Cloudy,190,2013-07-11 10:55:00
5:55 AM,62.6,53.6,72,29.91,-9999.0,SSW,13.8,23.0,N/A,,Scattered Clouds,200,2013-07-11 11:55:00
6:55 AM,64.4,53.6,68,29.91,-9999.0,SSW,10.4,-,N/A,,Scattered Clouds,200,2013-07-11 12:55:00
7:55 AM,68.0,53.6,60,29.91,-9999.0,SSW,2.3,-,N/A,,Scattered Clouds,200,2013-07-11 13:55:00
8:55 AM,75.2,53.6,47,29.89,-9999.0,SSW,9.2,-,N/A,,Scattered Clouds,210,2013-07-11 14:55:00
9:55 AM,82.4,50.0,32,29.86,-9999.0,SSW,6.9,-,N/A,,Scattered Clouds,200,2013-07-11 15:55:00
10:55 AM,89.6,46.4,22,29.83,-9999.0,East,5.8,-,N/A,,Scattered Clouds,90,2013-07-11 16:55:00
11:55 AM,91.4,46.4,21,29.81,-9999.0,East,5.8,-,N/A,,Scattered Clouds,90,2013-07-11 17:55:00
12:55 PM,95.0,41.0,15,29.78,-9999.0,SSE,13.8,20.7,N/A,,Scattered Clouds,160,2013-07-11 18:55:00
1:55 PM,96.8,42.8,16,29.75,-9999.0,SE,16.1,20.7,N/A,,Scattered Clouds,130,2013-07-11 19:55:00
2:55 PM,95.0,39.2,14,29.74,70.0,South,11.5,18.4,N/A,,Mostly Cloudy,170,2013-07-11 20:55:00
3:55 PM,96.8,48.2,19,29.73,70.0,SE,18.4,28.8,N/A,,Scattered Clouds,140,2013-07-11 21:55:00
4:55 PM,95.0,51.8,23,29.73,70.0,SSE,24.2,32.2,N/A,,Partly Cloudy,150,2013-07-11 22:55:00
5:55 PM,91.4,53.6,28,29.73,70.0,SE,26.5,-,N/A,,Partly Cloudy,140,2013-07-11 23:55:00
6:55 PM,87.8,51.8,29,29.72,70.0,SSE,24.2,32.2,N/A,,Scattered Clouds,150,2013-07-12 00:55:00
7:55 PM,86.0,53.6,33,29.73,70.0,SSE,19.6,29.9,N/A,Thunderstorm,Mostly Cloudy,160,2013-07-12 01:55:00
8:08 PM,84.2,53.6,35,30.00,70.0,South,20.7,27.6,N/A,Thunderstorm,Thunderstorm,170,2013-07-12 02:08:00
8:55 PM,82.4,59.0,45,29.76,25.0,South,19.6,28.8,N/A,Thunderstorm,Thunderstorm,180,2013-07-12 02:55:00
9:55 PM,80.6,57.2,45,29.79,25.0,WSW,18.4,26.5,N/A,Thunderstorm,Thunderstorm,240,2013-07-12 03:55:00
10:55 PM,69.8,59.0,68,29.82,7.0,South,6.9,-,N/A,Rain-Thunderstorm,Light Thunderstorms and Rain,190,2013-07-12 04:55:00
11:21 PM,68.0,59.0,73,30.08,7.0,SW,11.5,-,N/A,Thunderstorm,Mostly Cloudy,230,2013-07-12 05:21:00
11:55 PM,68.0,59.0,73,29.80,7.0,SW,8.1,-,N/A,,Mostly Cloudy,230,2013-07-12 05:55:00